GFSCGP_850_spd_159.txt.gz
Wind_Speed
5 4 12 18 6 4 2 3 5 3 4 5 13 15 15 18 14 18 26 26 27 28 26 26 27 29 27 23 22 21 19 19 20 22 23 25 27 25 22 19 18 16 15 18
1 14 10 5 7 6 6 11 14 7 7 5 9 17 17 17 18 24 26 26 31 28 26 24 25 28 26 22 19 17 16 18 21 22 22 22 20 19 19 17 14 15 16 15
13 5 10 11 6 8 8 11 7 11 4 5 6 8 5 5 5 13 19 23 23 26 30 25 24 24 21 18 15 14 14 16 16 16 16 14 13 15 16 17 17 17 18 15
8 10 4 6 9 11 12 10 13 10 6 5 1 6 4 8 9 7 15 13 13 14 21 25 24 22 17 14 12 11 11 10 9 11 12 12 12 13 13 15 15 14 13 16
8 6 11 16 14 10 6 4 8 5 5 2 3 4 6 3 6 3 6 5 5 8 15 25 23 18 15 12 9 6 5 4 7 8 11 13 15 15 14 13 12 14 12 16
10 7 7 11 9 13 4 1 3 2 1 5 7 7 3 3 3 3 2 2 5 10 16 23 21 18 14 10 7 5 5 6 6 5 5 5 6 8 9 9 11 12 10 11
7 15 4 6 5 2 5 3 2 2 3 5 0 2 8 5 8 6 5 3 8 17 26 25 22 17 13 10 8 7 7 8 7 7 7 7 7 7 7 7 10 11 13 15
6 7 17 11 16 9 9 6 4 8 7 4 1 5 5 5 5 6 8 6 16 23 25 24 20 16 13 11 10 8 7 8 8 7 7 6 6 7 7 8 9 10 12 14
4 6 3 6 15 16 6 9 11 2 1 1 3 5 9 4 5 1 0 10 18 23 23 22 20 17 14 11 10 8 7 6 6 6 6 6 5 4 4 4 3 3 5 8
4 8 5 4 4 8 12 8 3 1 6 8 2 3 6 6 9 4 3 10 15 21 21 21 19 17 14 11 11 10 7 5 4 3 3 2 1 2 4 5 7 9 13 14
6 1 9 6 5 11 4 9 5 2 7 9 4 4 4 6 6 8 1 11 18 22 21 21 18 16 13 12 10 10 8 6 5 4 3 4 5 5 4 4 8 12 13 14
5 4 6 7 5 7 5 10 18 6 6 3 3 6 3 4 5 4 7 10 15 22 22 21 19 17 15 13 11 11 9 6 5 4 4 4 6 4 3 6 6 9 3 0
9 3 4 6 4 3 6 7 9 3 3 12 5 4 3 3 4 5 6 11 16 22 21 22 21 18 16 12 12 11 9 7 6 5 5 5 3 3 4 1 6 7 4 1
12 5 5 6 9 3 6 8 4 6 5 7 8 8 4 8 10 6 1 8 14 24 28 27 25 21 18 13 11 11 10 8 7 6 4 5 6 2 3 5 6 8 10 7
3 10 11 13 14 4 5 12 7 7 5 4 2 8 14 13 10 14 17 10 15 21 27 30 29 25 22 17 14 12 11 9 8 7 6 6 7 7 5 5 3 4 8 11
3 4 11 15 14 14 14 16 14 13 16 11 11 16 9 17 10 11 17 12 14 19 24 27 28 27 26 22 18 16 14 12 10 9 8 8 9 9 9 9 9 8 11 14
5 3 4 8 9 6 9 15 17 12 11 10 11 12 16 11 8 10 17 16 18 18 21 26 29 29 29 26 21 20 17 14 13 11 11 12 12 12 10 9 9 11 12 14
12 9 5 5 3 6 4 4 6 11 12 9 9 10 15 11 15 15 13 12 14 16 19 21 27 28 28 27 22 21 20 17 15 14 15 14 12 11 12 13 14 15 15 15
18 14 5 4 7 5 9 8 1 4 3 10 13 9 10 17 5 6 12 17 18 20 19 18 20 27 26 30 26 25 23 20 18 18 17 15 15 14 13 14 16 17 17 20
17 16 8 3 5 7 5 4 4 3 6 2 7 4 3 17 2 2 20 22 23 22 18 13 16 22 27 34 30 29 27 24 22 20 19 15 17 14 12 15 17 18 17 19
4 8 16 6 2 4 12 5 2 4 4 5 2 3 6 3 7 19 21 22 21 22 19 10 15 22 28 34 33 32 30 27 24 22 20 17 18 14 13 15 16 17 17 18
7 5 4 4 3 9 8 3 5 4 3 5 4 6 8 11 16 20 21 21 22 22 21 10 15 22 28 36 35 35 33 29 27 25 22 20 18 16 14 15 18 17 18 19
5 5 5 7 6 4 5 3 10 4 8 8 11 12 12 15 18 21 25 22 23 22 19 10 15 21 27 36 37 35 34 33 30 28 25 22 20 18 16 17 20 20 18 17
3 4 3 2 9 9 18 18 15 13 14 15 12 18 19 20 20 21 23 23 21 22 18 12 17 22 28 36 38 33 36 34 32 30 28 25 23 22 19 19 18 18 19 18
4 9 7 6 4 4 14 16 18 20 23 20 19 21 17 20 21 22 23 22 19 21 21 15 18 23 27 35 39 36 36 36 34 32 30 28 25 23 23 20 18 17 16 12
6 5 7 10 9 11 17 26 24 25 27 30 26 26 24 23 23 22 24 20 20 21 22 17 18 23 27 34 40 39 38 39 37 36 33 31 28 26 25 26 25 21 16 17

GFSCGP_850_spd_162.txt.gz
Wind_Speed
14 11 16 19 17 18 13 12 15 15 6 9 14 19 21 20 21 22 25 25 22 23 22 21 22 25 28 29 28 26 25 24 23 23 23 25 26 27 27 24 23 19 18 16
8 19 19 13 11 15 17 18 20 18 12 13 16 18 22 22 26 29 27 28 28 25 22 19 20 24 27 26 27 26 23 22 22 23 23 21 18 23 22 20 21 19 18 15
21 10 9 15 17 16 17 19 20 20 16 19 20 21 18 11 11 13 16 18 20 23 25 20 21 22 22 20 23 21 20 20 20 20 21 20 17 17 17 19 20 17 15 15
16 21 12 11 17 17 18 15 15 15 12 10 2 9 13 13 15 11 11 14 14 14 17 22 22 21 20 18 19 17 17 16 17 16 16 14 11 11 11 12 15 16 15 17
7 7 16 21 22 12 16 5 7 7 11 15 16 9 9 4 14 6 3 2 5 7 13 22 22 20 18 18 17 15 14 13 13 12 12 13 12 11 11 13 14 15 14 14
22 18 12 16 14 18 3 8 2 6 7 13 16 13 10 6 5 5 1 3 3 6 13 19 19 19 18 18 15 14 12 11 10 9 12 14 14 15 15 15 15 13 12 12
14 21 22 17 13 11 16 7 3 6 8 14 1 6 14 7 4 13 12 2 5 10 16 21 21 19 17 16 15 12 12 11 10 10 10 10 10 12 12 12 12 11 13 14
16 18 17 18 26 17 22 17 7 9 12 11 2 8 4 2 2 11 7 4 10 14 17 19 19 18 16 14 14 13 12 13 11 10 11 11 11 11 10 9 9 10 10 11
8 22 14 12 18 22 18 17 16 6 5 9 9 9 8 5 2 3 5 7 14 18 17 19 19 17 15 14 15 13 12 12 10 10 9 10 9 9 10 9 9 9 9 8
5 11 18 18 14 18 22 14 7 5 7 8 9 13 8 5 9 13 2 9 17 16 16 18 18 16 15 14 14 13 12 11 10 9 9 9 8 8 7 6 7 8 10 11
6 6 14 14 12 17 14 14 11 8 10 9 8 5 6 8 7 10 1 11 18 19 19 18 16 15 14 13 12 12 12 10 9 9 6 6 7 7 6 6 6 10 15 18
3 5 10 15 20 12 9 14 20 12 14 13 10 6 10 7 5 5 2 11 18 19 19 18 17 15 14 13 12 12 13 11 10 9 8 7 7 7 6 6 5 6 7 10
8 5 10 15 11 5 4 3 11 11 11 17 13 6 8 12 1 5 4 6 14 18 19 19 18 17 15 13 12 12 13 12 11 9 9 10 8 7 7 5 1 3 1 3
14 13 15 15 14 5 7 2 5 6 5 9 16 10 11 8 7 5 3 3 8 15 18 19 18 19 16 14 13 13 12 12 11 10 8 9 7 6 6 5 3 7 8 7
5 14 19 22 23 22 16 16 8 6 4 6 11 14 11 13 10 12 5 0 6 11 16 20 20 20 17 16 14 13 13 12 11 9 9 9 8 7 5 5 4 6 8 12
5 10 14 19 23 24 26 22 18 13 8 10 10 21 19 14 13 13 11 2 5 9 14 17 18 20 20 18 17 16 16 13 12 11 10 11 10 9 7 7 7 10 10 15
13 10 12 19 21 21 24 22 22 19 16 11 13 18 19 17 9 8 11 10 5 3 9 15 20 22 24 21 19 18 20 16 14 12 12 13 13 12 13 10 11 13 14 15
19 16 12 13 16 20 14 11 8 14 16 18 11 16 16 12 10 11 3 5 7 6 2 9 17 21 23 23 22 19 22 19 17 15 16 16 14 13 12 11 12 15 16 17
21 18 10 11 15 17 8 10 13 11 12 13 17 20 19 12 8 6 8 10 9 10 9 10 15 21 22 25 25 23 25 22 20 19 19 17 14 13 14 14 15 17 16 18
15 17 12 11 12 9 12 7 5 4 11 7 11 16 12 11 6 4 11 12 12 12 13 10 9 17 22 26 27 26 28 25 23 22 22 19 18 15 15 16 18 20 20 21
5 8 18 17 14 10 10 11 1 8 4 11 8 6 1 3 3 9 11 10 12 14 16 7 7 16 21 26 29 27 29 28 25 25 23 21 20 17 16 19 19 19 19 20
8 4 5 12 11 19 9 8 8 5 12 7 4 2 3 6 8 8 10 12 15 16 16 7 6 12 19 28 29 27 27 29 27 27 24 24 22 16 19 20 21 20 19 19
7 7 6 6 10 6 5 2 6 8 7 6 4 3 2 7 11 11 12 13 14 15 14 9 5 11 19 27 29 27 27 32 30 29 26 26 22 18 19 21 22 21 21 22
15 12 8 7 12 17 19 12 8 8 5 3 7 7 9 10 12 14 13 12 13 12 12 10 3 11 19 25 28 26 29 33 32 31 29 28 23 21 21 21 21 22 22 21
10 5 10 17 16 18 16 14 12 14 13 9 9 10 16 17 14 14 15 13 14 14 12 9 4 9 16 24 28 27 32 35 34 33 31 29 24 23 24 23 22 20 19 18
12 12 11 10 10 13 17 15 15 17 18 17 11 14 19 17 18 16 17 14 14 14 13 10 7 7 14 22 31 30 34 37 36 35 35 31 28 27 26 27 25 22 19 17

GFSCGP_850_spd_165.txt.gz
Wind_Speed
16 12 17 18 18 18 20 20 20 18 16 14 16 18 18 22 26 25 27 27 27 23 22 23 24 24 23 22 21 20 19 17 20 19 16 20 21 22 23 24 23 21 19 15
16 18 19 19 17 17 19 20 22 20 19 13 16 19 17 20 26 31 32 30 28 29 26 25 26 26 25 23 21 20 18 17 19 15 14 14 12 13 14 16 20 19 16 17
19 12 6 16 19 17 19 20 20 21 18 18 19 23 23 21 22 17 19 23 24 26 28 28 26 25 24 23 21 19 17 16 16 19 18 20 16 15 14 16 16 14 14 17
15 17 22 20 18 15 21 16 19 19 15 14 4 14 15 15 18 12 16 13 16 17 21 22 25 24 23 21 20 17 15 14 13 18 16 14 11 10 10 8 9 11 14 14
8 8 9 16 21 16 21 14 13 15 16 16 16 11 15 17 13 12 4 1 5 6 10 18 22 22 20 19 18 16 14 15 15 14 13 11 11 9 8 8 8 11 12 12
21 25 17 13 15 16 17 9 12 13 12 14 18 16 17 15 14 10 9 5 2 5 9 13 17 20 19 17 16 15 14 13 12 10 10 11 10 10 8 9 9 12 14 15
18 19 20 18 16 16 13 12 8 8 11 15 13 7 16 13 2 6 9 13 1 4 10 16 19 21 19 17 17 15 16 12 9 8 7 7 7 9 13 11 14 15 16 15
14 24 22 19 20 16 17 18 11 14 12 12 4 8 10 8 4 2 6 4 4 7 13 18 19 19 18 17 15 15 14 14 13 11 9 10 8 10 12 12 9 11 11 11
8 17 23 24 20 10 21 18 24 22 23 16 14 15 16 7 7 4 5 5 9 12 15 17 19 17 17 14 15 15 13 13 12 10 10 10 10 11 8 7 7 6 7 9
7 16 14 16 22 20 20 18 15 11 8 16 13 15 13 13 8 4 3 4 10 13 15 17 18 16 14 12 14 15 13 13 12 10 9 8 7 6 7 6 6 6 8 8
17 9 20 18 15 17 17 15 23 11 15 17 17 15 6 13 5 9 7 6 10 11 16 18 17 15 14 12 13 15 14 12 11 11 12 11 9 9 7 6 7 9 11 13
18 17 18 22 24 22 19 9 6 4 18 16 17 13 10 13 14 11 9 6 8 12 15 16 15 14 13 13 12 12 11 11 11 12 9 7 7 5 5 7 8 10 13 16
13 9 14 20 18 22 6 4 7 7 2 10 15 16 14 15 13 11 14 4 8 13 13 14 14 14 13 12 13 13 11 11 9 10 9 8 9 9 8 7 6 6 7 5
14 13 17 16 20 20 12 6 7 5 4 7 6 15 13 16 13 13 16 6 5 12 15 14 14 13 13 12 12 13 12 12 10 10 10 9 7 7 7 6 2 1 3 5
13 18 19 19 21 24 26 24 14 14 8 5 9 21 22 15 11 6 5 12 3 9 14 15 15 14 14 13 13 13 13 13 12 11 10 10 9 7 6 5 2 3 6 8
15 17 18 19 22 23 25 29 23 20 18 10 14 20 19 13 18 9 5 7 7 5 11 16 17 18 17 15 14 15 14 14 14 11 12 11 10 9 6 5 5 7 13 15
18 15 17 21 22 23 20 22 24 23 23 17 15 18 15 17 14 6 9 6 3 6 5 12 17 18 20 18 16 16 15 15 15 12 12 12 11 11 10 9 9 11 17 16
20 19 15 15 19 22 21 22 23 22 15 16 19 12 18 13 15 10 3 4 5 5 3 5 12 16 18 19 18 17 17 17 15 14 14 15 14 14 14 10 12 14 16 15
20 17 9 13 16 20 25 24 18 12 14 18 19 16 19 12 7 11 2 5 5 5 6 8 9 15 19 22 21 21 20 18 18 16 17 17 15 15 15 13 15 17 18 18
9 17 12 11 13 16 20 20 25 7 10 11 14 18 15 10 4 7 7 6 4 4 6 11 9 12 21 22 24 24 22 21 20 19 19 18 16 15 16 15 18 18 18 19
4 7 14 15 11 12 16 11 4 8 2 8 8 7 14 7 4 3 6 7 7 10 10 11 3 10 19 22 26 27 24 21 21 22 22 20 18 17 16 18 20 21 22 21
13 6 5 4 7 13 13 8 8 6 6 8 5 5 4 5 2 2 4 9 9 10 12 9 0 7 16 24 27 27 24 22 24 24 24 22 20 18 19 21 22 21 20 20
3 6 7 5 5 7 16 14 14 7 7 6 4 3 3 3 4 6 7 7 9 8 10 8 1 8 14 24 27 26 25 26 26 27 26 25 22 18 20 22 21 20 18 20
11 16 10 13 12 14 14 21 20 10 8 6 3 2 2 6 8 8 8 8 8 8 8 8 2 6 14 24 26 24 27 27 28 30 29 27 22 19 19 19 18 19 17 19
13 15 14 16 18 21 17 16 20 13 14 16 13 8 8 9 10 10 9 9 9 8 7 7 3 4 11 23 26 24 29 28 30 31 30 29 22 20 20 18 18 18 15 18
17 13 11 11 17 12 16 10 13 11 12 13 15 15 12 11 12 11 12 10 10 10 7 5 3 3 6 17 26 24 30 28 32 34 33 31 24 22 21 24 25 21 18 18

GFSCGP_850_spd_168.txt.gz
Wind_Speed
14 9 13 14 14 16 15 15 16 14 15 13 13 14 10 15 20 21 22 23 24 27 27 22 25 24 26 27 25 23 24 25 23 24 22 19 16 16 19 21 20 21 15 14
13 15 15 15 14 14 16 16 15 14 10 14 14 14 9 11 19 24 26 25 25 26 26 26 28 29 30 30 28 24 27 25 27 24 20 16 15 13 13 14 18 17 17 18
15 13 11 16 14 15 17 14 13 16 12 14 14 18 15 20 30 36 33 36 32 28 28 28 29 34 35 31 27 28 25 24 24 22 22 21 19 16 15 16 19 20 13 16
11 15 19 17 15 13 17 11 12 14 13 10 6 15 13 14 16 9 15 23 10 8 16 19 21 37 38 33 26 27 25 24 23 22 22 21 20 18 15 11 8 8 11 15
8 6 5 8 12 12 18 10 13 9 11 8 13 7 12 9 11 14 6 10 3 3 5 9 12 30 29 27 26 25 23 21 20 21 18 15 13 8 5 7 7 8 12 14
15 21 14 11 14 8 14 12 13 6 5 10 16 12 15 9 6 5 5 13 5 3 4 8 12 23 23 24 26 25 23 22 23 20 15 13 11 13 13 13 13 11 14 16
14 17 12 19 16 12 10 11 5 5 6 11 7 10 11 5 1 1 4 12 9 3 1 4 18 21 21 21 20 21 19 19 17 14 11 12 15 16 14 10 11 13 14 13
6 17 1 20 15 10 18 14 8 5 7 5 6 4 4 4 7 6 1 5 5 4 7 10 16 18 19 19 20 20 19 14 14 15 14 14 12 13 16 17 14 12 9 8
7 10 19 20 18 12 9 11 14 18 19 11 9 14 11 8 9 8 6 4 3 8 12 14 14 16 17 19 18 15 18 17 17 14 11 10 10 11 9 6 7 4 3 6
7 11 9 13 23 14 12 16 8 1 4 9 6 10 7 12 15 8 6 4 9 13 17 14 15 16 17 16 16 15 12 12 12 9 7 8 8 8 6 6 8 9 9 8
10 7 15 19 6 19 17 8 8 4 7 5 8 5 12 11 10 10 7 10 16 16 19 17 15 16 15 11 17 16 14 13 11 11 11 11 13 13 11 9 6 6 8 8
11 8 16 20 21 19 22 15 5 3 5 5 4 8 17 26 16 12 6 11 14 11 21 16 16 15 12 10 14 14 13 12 12 12 10 12 10 8 7 5 4 5 9 12
8 4 9 13 12 10 10 5 2 9 3 6 4 3 14 19 29 19 5 7 12 19 11 17 16 13 12 13 12 12 13 12 10 10 7 7 8 7 5 5 5 7 8 9
8 9 13 11 14 14 17 15 8 5 5 8 8 9 11 12 22 34 18 5 12 14 12 13 14 13 10 11 13 14 13 11 8 7 9 9 8 8 7 6 2 3 1 2
10 15 16 18 19 18 19 20 17 10 13 13 15 12 7 7 15 30 27 17 8 9 11 12 15 14 13 13 15 10 12 12 10 12 9 7 8 8 8 5 2 1 4 6
10 14 16 19 18 20 21 20 20 19 17 11 15 16 5 5 17 30 11 15 14 10 12 16 16 17 14 13 17 12 12 11 12 11 10 11 10 9 7 4 2 9 10 12
12 11 12 18 15 18 17 15 17 19 18 14 16 15 12 7 5 22 22 10 11 12 13 4 15 14 19 13 15 14 11 12 13 11 13 12 10 10 8 7 8 14 14 17
16 14 10 11 11 15 14 16 20 21 19 20 17 17 13 12 9 16 24 10 6 6 7 5 4 10 8 15 16 14 12 13 14 11 14 13 13 12 12 12 14 18 17 16
17 12 5 4 9 17 18 14 13 11 20 19 9 6 11 12 10 13 14 6 5 10 5 7 5 2 12 18 13 17 14 16 16 14 15 16 14 15 13 14 16 18 16 16
7 10 8 3 5 7 5 13 15 15 10 11 7 10 14 13 4 2 8 6 6 4 8 10 10 6 11 13 16 20 18 19 18 16 16 17 15 15 14 16 18 19 20 21
1 2 8 10 8 7 11 8 9 2 5 17 7 15 19 11 8 4 3 2 6 7 4 10 12 8 12 16 22 23 21 20 20 18 18 17 16 16 16 20 21 20 21 22
4 3 3 3 4 5 8 7 5 7 23 21 14 15 16 14 10 5 3 4 4 6 9 7 6 7 10 15 25 26 23 21 21 20 20 19 18 18 18 21 22 22 23 21
3 4 1 3 4 20 24 5 7 28 20 21 11 11 11 9 6 1 3 5 4 8 9 9 3 4 11 12 22 26 23 23 23 23 22 22 22 17 18 22 24 23 20 20
7 5 4 8 3 14 15 14 12 20 23 17 7 5 4 4 3 4 4 6 7 7 8 7 7 6 10 13 18 24 26 23 23 25 26 25 24 21 20 21 20 20 19 21
9 14 8 12 14 12 14 21 9 13 21 15 9 5 5 4 5 5 6 7 8 6 6 5 7 7 8 16 20 23 26 24 25 28 28 27 24 22 23 21 20 19 18 17
15 14 9 10 14 6 17 22 14 15 21 15 12 12 11 6 6 6 8 9 7 6 7 4 5 8 2 15 23 20 26 25 25 30 32 28 25 24 24 24 24 18 17 18